Date String (YYYY-MM-DD hh:mm:ss) UTC,Instrument flags,Ambient pressure (hPa),Sample flow (lpm),Bypass flow (lpm),Sample temperature (°C),Ambient temperature (°C),ASC tube jacket temperature (°C),LED temperature (°C),Box temperature (°C),Sample RH (%),Span deviation,Mass concentration (μg/m³),Mass concentration (μg/m³),Mass concentration (μg/m³)
DateTimeUTC,F1_M11,P_M11,Q1_M11,Q2_M11,T1_M11,T2_M11,T3_M11,T4_M11,T5_M11,U1_M11,ZSPAN_M11,X2_M11,X0_M11,X1_M11
2022-01-20 17:00:00,,0831.3,4.98,0.00,21.9,22.6,00.0,30.8,23.8,11.6,-000.2,0015.16,0020.22,0013.57
2022-01-20 17:01:00,,0831.4,5.02,0.00,22.1,23.1,00.0,30.9,24.0,11.5,0000.1,0015.14,0020.25,0013.57
2022-01-20 17:02:00,,0831.4,4.99,0.00,22.2,22.9,00.0,30.9,24.1,11.5,0000.2,0015.14,0020.43,0013.58
2022-01-20 17:03:00,,0831.2,5.00,0.00,22.2,22.7,00.0,30.9,24.1,11.5,0000.2,0015.12,0020.49,0013.57
2022-01-20 17:04:00,,0831.2,5.00,0.00,22.2,22.3,00.0,31.0,24.0,11.6,0000.3,0015.07,0020.40,0013.54
2022-01-20 17:05:00,,0831.2,5.01,0.00,22.1,22.0,00.0,31.0,23.9,11.6,0000.4,0015.08,0020.47,0013.53
2022-01-20 17:06:00,,0831.1,4.99,0.00,22.1,21.7,00.0,31.0,23.8,11.5,0000.4,0015.03,0020.58,0013.52
2022-01-20 17:07:00,,0831.2,5.00,0.00,22.1,21.5,00.0,30.9,23.7,11.6,0000.3,0014.99,0020.81,0013.50
2022-01-20 17:08:00,,0831.2,5.01,0.00,22.0,21.4,00.0,30.9,23.7,11.6,0000.2,0015.00,0021.05,0013.49
2022-01-20 17:09:00,,0831.2,4.99,0.00,22.0,21.4,00.0,30.9,23.7,11.6,0000.0,0015.02,0021.11,0013.55
2022-01-20 17:10:00,,0831.3,5.02,0.00,22.0,21.4,00.0,30.9,23.7,11.7,0000.0,0015.10,0021.25,0013.61
2022-01-20 17:11:00,,0831.4,4.99,0.00,22.0,21.3,00.0,30.9,23.7,11.8,0000.1,0015.07,0021.24,0013.58
2022-01-20 17:12:00,,0831.4,4.99,0.00,21.9,21.2,00.0,30.9,23.6,11.8,0000.1,0015.01,0021.01,0013.55
2022-01-20 17:13:00,,0831.3,5.02,0.00,21.9,21.1,00.0,30.9,23.5,11.7,0000.2,0014.88,0020.74,0013.45
2022-01-20 17:14:00,,0831.2,4.99,0.00,21.8,20.9,00.0,30.9,23.4,11.7,0000.3,0014.73,0020.36,0013.33
2022-01-20 17:15:00,,0831.2,5.02,0.00,21.8,20.9,00.0,30.8,23.3,11.6,0000.3,0014.55,0020.11,0013.19
2022-01-20 17:16:00,,0831.3,5.00,0.00,21.7,20.7,00.0,30.8,23.3,11.5,0000.3,0014.41,0019.99,0013.06
2022-01-20 17:17:00,,0831.2,4.99,0.00,21.7,20.7,00.0,30.8,23.2,11.5,0000.4,0014.30,0019.55,0012.97
2022-01-20 17:18:00,,0831.4,5.01,0.00,21.7,21.3,00.0,30.8,23.3,11.5,0000.5,0014.15,0019.07,0012.84
2022-01-20 17:19:00,,0831.4,4.98,0.00,21.8,22.2,00.0,30.8,23.6,11.3,0000.5,0013.96,0018.54,0012.71
2022-01-20 17:20:00,,0831.4,5.01,0.00,22.0,22.9,00.0,30.9,23.9,11.2,0000.6,0013.80,0018.25,0012.59
2022-01-20 17:21:00,,0831.3,5.00,0.00,22.0,22.6,00.0,30.9,23.9,11.1,0000.4,0013.65,0018.10,0012.45
2022-01-20 17:22:00,,0831.2,4.99,0.00,22.0,22.2,00.0,30.9,23.8,11.1,0000.4,0013.53,0017.87,0012.37
2022-01-20 17:23:00,,0831.2,5.01,0.00,22.0,21.8,00.0,30.9,23.6,11.1,0000.3,0013.44,0017.77,0012.30
2022-01-20 17:24:00,,0831.1,4.99,0.00,21.9,21.5,00.0,30.9,23.5,11.2,0000.2,0013.41,0017.95,0012.29
2022-01-20 17:25:00,,0831.1,5.00,0.00,21.9,21.3,00.0,30.8,23.5,11.2,0000.2,0013.39,0018.55,0012.29
2022-01-20 17:26:00,,0831.1,5.01,0.00,21.8,21.1,00.0,30.8,23.4,11.3,0000.4,0013.49,0019.03,0012.36
2022-01-20 17:27:00,,0831.1,4.99,0.00,21.8,20.9,00.0,30.8,23.3,11.4,0000.5,0013.52,0019.01,0012.41
2022-01-20 17:28:00,,0831.2,5.01,0.00,21.7,20.8,00.0,30.8,23.3,11.4,0000.6,0013.54,0019.09,0012.43
2022-01-20 17:29:00,,0831.1,5.00,0.00,21.6,20.8,00.0,30.8,23.2,11.4,0000.5,0013.56,0019.27,0012.47
2022-01-20 17:30:00,,0831.1,4.99,0.00,21.6,20.6,00.0,30.7,23.1,11.4,0000.6,0013.60,0019.61,0012.51
2022-01-20 17:31:00,,0831.2,5.01,0.00,21.6,20.7,00.0,30.7,23.1,11.4,0000.7,0013.73,0020.07,0012.57
2022-01-20 17:32:00,,0831.2,4.99,0.00,21.6,20.7,00.0,30.7,23.2,11.5,0000.7,0013.76,0020.17,0012.59
2022-01-20 17:33:00,,0831.2,5.02,0.00,21.5,20.8,00.0,30.7,23.2,11.5,0000.9,0013.77,0020.32,0012.58
2022-01-20 17:34:00,,0831.1,4.99,0.00,21.5,20.8,00.0,30.7,23.2,11.5,0000.8,0013.78,0020.36,0012.57
2022-01-20 17:35:00,,0831.0,5.00,0.00,21.5,21.0,00.0,30.6,23.2,11.5,0000.6,0013.79,0020.30,0012.60
2022-01-20 17:36:00,,0831.0,5.00,0.00,21.6,21.8,00.0,30.7,23.4,11.5,0000.5,0013.79,0019.75,0012.60
2022-01-20 17:37:00,,0831.0,4.99,0.00,21.8,22.6,00.0,30.7,23.7,11.4,0000.2,0013.69,0018.88,0012.56
2022-01-20 17:38:00,,0831.0,5.00,0.00,21.9,22.4,00.0,30.7,23.8,11.3,0000.0,0013.61,0018.79,0012.49
2022-01-20 17:39:00,,0831.0,4.99,0.00,21.9,22.1,00.0,30.7,23.7,11.2,-000.1,0013.53,0018.59,0012.44
2022-01-20 17:40:00,,0831.0,5.01,0.00,21.9,21.8,00.0,30.7,23.7,11.3,-000.1,0013.47,0018.40,0012.42
2022-01-20 17:41:00,,0831.0,5.00,0.00,21.8,21.5,00.0,30.7,23.6,11.2,-000.1,0013.43,0018.06,0012.38
2022-01-20 17:42:00,,0830.9,4.99,0.00,21.8,21.3,00.0,30.7,23.5,11.2,-000.2,0013.32,0017.68,0012.32
2022-01-20 17:43:00,,0830.9,5.02,0.00,21.8,21.2,00.0,30.7,23.5,11.3,-000.1,0013.29,0017.55,0012.31
2022-01-20 17:44:00,,0830.9,4.99,0.00,21.8,21.1,00.0,30.7,23.5,11.4,-000.4,0013.33,0017.53,0012.34
2022-01-20 17:45:00,,0830.9,5.00,0.00,21.7,21.1,00.0,30.7,23.4,11.5,-000.5,0013.33,0017.50,0012.36
2022-01-20 17:46:00,,0830.9,5.01,0.00,21.7,20.9,00.0,30.7,23.3,11.5,-000.5,0013.26,0017.35,0012.30
2022-01-20 17:47:00,,0830.8,4.99,0.00,21.7,20.8,00.0,30.7,23.3,11.5,-000.3,0013.29,0017.45,0012.29
2022-01-20 17:48:00,,0830.8,5.00,0.00,21.6,20.8,00.0,30.7,23.2,11.6,-000.2,0013.33,0017.55,0012.30
2022-01-20 17:49:00,,0830.7,5.01,0.00,21.6,20.8,00.0,30.7,23.2,11.6,-000.2,0013.34,0017.44,0012.32
2022-01-20 17:50:00,,0830.7,4.99,0.00,21.6,20.9,00.0,30.6,23.2,11.7,-000.1,0013.37,0017.51,0012.35
2022-01-20 17:51:00,,0830.7,5.01,0.00,21.6,20.9,00.0,30.6,23.3,11.7,-000.1,0013.42,0017.69,0012.35
2022-01-20 17:52:00,,0830.7,4.99,0.00,21.6,21.4,00.0,30.6,23.4,11.7,-000.1,0013.46,0017.73,0012.37
2022-01-20 17:53:00,,0830.8,5.01,0.00,21.8,22.3,00.0,30.7,23.7,11.7,0000.0,0013.52,0017.85,0012.41
2022-01-20 17:54:00,,0830.7,5.00,0.00,22.0,23.1,00.0,30.7,24.0,11.6,0000.0,0013.54,0017.89,0012.41
2022-01-20 17:55:00,,0830.7,4.99,0.00,22.1,23.0,00.0,30.8,24.1,11.5,0000.2,0013.52,0017.88,0012.40
2022-01-20 17:56:00,,0830.7,5.01,0.00,22.1,22.8,00.0,30.8,24.0,11.4,0000.2,0013.47,0017.71,0012.37
2022-01-20 17:57:00,,0830.7,5.00,0.00,22.1,22.5,00.0,30.8,24.0,11.4,0000.2,0013.46,0017.79,0012.37
2022-01-20 17:58:00,,0830.6,5.00,0.00,22.1,22.3,00.0,30.9,23.9,11.3,0000.0,0013.40,0017.72,0012.36
2022-01-20 17:59:00,,0830.6,4.99,0.00,22.1,22.1,00.0,30.9,23.8,11.3,-000.1,0013.38,0017.71,0012.33
